Hourly Weather Runowo

Today, 16 April, Friday

Time Temperature Precipitation Wind Pressure Humidity
00:00 +1°C° 0.2 mm 4 mps 758 mmHg 94%
01:00 +1°C° 0.2 mm 4 mps 757 mmHg 92%
02:00 +1°C° 0.2 mm 4 mps 757 mmHg 92%
03:00 +1°C° 0.2 mm 4 mps 758 mmHg 93%
04:00 +1°C° 0.2 mm 4 mps 758 mmHg 93%
05:00 +1°C° 0.3 mm 4 mps 758 mmHg 94%
06:00 +1°C° 0.3 mm 4 mps 758 mmHg 95%
07:00 +1°C° 0.3 mm 4 mps 758 mmHg 96%
08:00 +1°C° 0.3 mm 5 mps 758 mmHg 93%
09:00 +2°C° 0.3 mm 5 mps 758 mmHg 90%
10:00 +2°C° 0.3 mm 5 mps 758 mmHg 87%
11:00 +4°C° 0 mm 4 mps 758 mmHg 85%
12:00 +5°C° 0 mm 4 mps 758 mmHg 83%
13:00 +5°C° 0 mm 4 mps 758 mmHg 81%
14:00 +5°C° 0 mm 4 mps 758 mmHg 84%
15:00 +4°C° 0 mm 4 mps 758 mmHg 88%
16:00 +4°C° 0 mm 4 mps 757 mmHg 91%
17:00 +4°C° 0 mm 4 mps 758 mmHg 92%
18:00 +3°C° 0 mm 4 mps 758 mmHg 92%
19:00 +3°C° 0 mm 4 mps 758 mmHg 93%
20:00 +3°C° 0.3 mm 3 mps 758 mmHg 94%
21:00 +3°C° 0.3 mm 3 mps 757 mmHg 94%
22:00 +3°C° 0.3 mm 3 mps 757 mmHg 95%
23:00 +3°C° 0.3 mm 3 mps 757 mmHg 96%

Tomorrow, 17 April, Saturday

Time Temperature Precipitation Wind Pressure Humidity
00:00 +3°C° 0.3 mm 3 mps 757 mmHg 96%
01:00 +4°C° 0.3 mm 2 mps 757 mmHg 97%
02:00 +4°C° 0 mm 2 mps 757 mmHg 97%
03:00 +4°C° 0 mm 2 mps 757 mmHg 97%
04:00 +4°C° 0 mm 2 mps 757 mmHg 97%
05:00 +4°C° 0 mm 2 mps 757 mmHg 97%
06:00 +4°C° 0 mm 2 mps 757 mmHg 96%
07:00 +5°C° 0 mm 2 mps 757 mmHg 96%
08:00 +5°C° 0 mm 2 mps 757 mmHg 95%
09:00 +5°C° 0 mm 3 mps 757 mmHg 94%
10:00 +7°C° 0 mm 3 mps 757 mmHg 93%
11:00 +7°C° 0.1 mm 3 mps 757 mmHg 92%
12:00 +8°C° 0.1 mm 2 mps 757 mmHg 91%
13:00 +9°C° 0.1 mm 2 mps 757 mmHg 90%
14:00 +9°C° 0.2 mm 2 mps 757 mmHg 90%
15:00 +9°C° 0.2 mm 2 mps 757 mmHg 90%
16:00 +9°C° 0.2 mm 2 mps 757 mmHg 90%
17:00 +8°C° 0.1 mm 2 mps 757 mmHg 92%
18:00 +8°C° 0.1 mm 2 mps 757 mmHg 93%
19:00 +7°C° 0.1 mm 2 mps 757 mmHg 95%
20:00 +7°C° 0.2 mm 2 mps 757 mmHg 95%
21:00 +7°C° 0.2 mm 2 mps 757 mmHg 95%
22:00 +7°C° 0.2 mm 2 mps 757 mmHg 96%
23:00 +6°C° 0.1 mm 2 mps 757 mmHg 96%

Day after tomorrow, 18 April, Sunday

Time Temperature Precipitation Wind Pressure Humidity
00:00 +6°C° 0.1 mm 2 mps 757 mmHg 96%
01:00 +6°C° 0.1 mm 2 mps 757 mmHg 96%
02:00 +5°C° 0 mm 2 mps 757 mmHg 96%
03:00 +5°C° 0 mm 2 mps 757 mmHg 96%
04:00 +4°C° 0 mm 2 mps 757 mmHg 96%
05:00 +5°C° 0 mm 2 mps 757 mmHg 94%
06:00 +6°C° 0 mm 2 mps 757 mmHg 92%
07:00 +7°C° 0 mm 2 mps 758 mmHg 90%
08:00 +8°C° 0 mm 3 mps 758 mmHg 82%
09:00 +10°C° 0 mm 3 mps 758 mmHg 75%
10:00 +11°C° 0 mm 3 mps 758 mmHg 68%
11:00 +11°C° 0.1 mm 3 mps 757 mmHg 66%
12:00 +12°C° 0.1 mm 3 mps 757 mmHg 64%
13:00 +12°C° 0.1 mm 3 mps 757 mmHg 63%
14:00 +13°C° 0 mm 2 mps 757 mmHg 62%
15:00 +13°C° 0 mm 2 mps 757 mmHg 62%
16:00 +13°C° 0 mm 2 mps 757 mmHg 61%
17:00 +12°C° 0 mm 2 mps 757 mmHg 69%
18:00 +10°C° 0 mm 2 mps 757 mmHg 77%
19:00 +9°C° 0 mm 2 mps 757 mmHg 85%
20:00 +9°C° 0 mm 2 mps 757 mmHg 87%
21:00 +9°C° 0 mm 2 mps 757 mmHg 89%
22:00 +8°C° 0 mm 2 mps 757 mmHg 91%
23:00 +8°C° 0 mm 2 mps 757 mmHg 93%

19 April, Monday

Time Temperature Precipitation Wind Pressure Humidity
00:00 +8°C° 0 mm 2 mps 757 mmHg 94%
01:00 +8°C° 0 mm 2 mps 757 mmHg 95%
02:00 +8°C° 0.1 mm 2 mps 757 mmHg 95%
03:00 +8°C° 0.1 mm 2 mps 757 mmHg 95%
04:00 +8°C° 0.1 mm 2 mps 756 mmHg 96%
05:00 +8°C° 0 mm 2 mps 756 mmHg 94%
06:00 +9°C° 0 mm 2 mps 756 mmHg 92%
07:00 +9°C° 0 mm 3 mps 756 mmHg 91%
08:00 +10°C° 0.2 mm 3 mps 756 mmHg 83%
09:00 +12°C° 0.2 mm 4 mps 756 mmHg 75%
10:00 +13°C° 0.2 mm 5 mps 756 mmHg 67%
11:00 +14°C° 0.3 mm 5 mps 756 mmHg 65%
12:00 +14°C° 0.3 mm 5 mps 756 mmHg 63%
13:00 +14°C° 0.3 mm 5 mps 755 mmHg 60%
14:00 +14°C° 0.3 mm 5 mps 755 mmHg 61%
15:00 +14°C° 0.3 mm 5 mps 755 mmHg 61%
16:00 +14°C° 0.3 mm 5 mps 755 mmHg 62%
17:00 +12°C° 0.1 mm 5 mps 755 mmHg 66%
18:00 +11°C° 0.1 mm 4 mps 755 mmHg 71%
19:00 +9°C° 0.1 mm 3 mps 755 mmHg 75%
20:00 +8°C° 0 mm 3 mps 756 mmHg 77%
21:00 +8°C° 0 mm 3 mps 756 mmHg 78%
22:00 +7°C° 0 mm 3 mps 756 mmHg 79%
23:00 +7°C° 0 mm 3 mps 756 mmHg 79%

20 April, Tuesday

Time Temperature Precipitation Wind Pressure Humidity
00:00 +5°C° 0 mm 3 mps 756 mmHg 80%
01:00 +6°C° 0 mm 2 mps 756 mmHg 80%
02:00 +5°C° 0 mm 3 mps 756 mmHg 80%
03:00 +5°C° 0 mm 3 mps 756 mmHg 79%
04:00 +7°C° 0 mm 3 mps 756 mmHg 78%
05:00 +7°C° 0 mm 3 mps 756 mmHg 79%
06:00 +7°C° 0 mm 3 mps 756 mmHg 79%
07:00 +8°C° 0 mm 3 mps 755 mmHg 79%
08:00 +8°C° 0 mm 3 mps 756 mmHg 74%
09:00 +9°C° 0 mm 3 mps 756 mmHg 69%
10:00 +9°C° 0 mm 3 mps 756 mmHg 64%
11:00 +10°C° 0 mm 3 mps 755 mmHg 61%
12:00 +12°C° 0 mm 2 mps 755 mmHg 58%
13:00 +12°C° 0 mm 2 mps 755 mmHg 55%
14:00 +12°C° 0 mm 2 mps 755 mmHg 55%
15:00 +12°C° 0 mm 2 mps 754 mmHg 55%
16:00 +13°C° 0 mm 2 mps 754 mmHg 55%
17:00 +12°C° 0 mm 2 mps 754 mmHg 58%
18:00 +10°C° 0 mm 2 mps 754 mmHg 62%
19:00 +9°C° 0 mm 2 mps 754 mmHg 65%
20:00 +10°C° 0 mm 1 mps 754 mmHg 67%
21:00 +9°C° 0 mm 1 mps 754 mmHg 68%
22:00 +9°C° 0 mm 1 mps 754 mmHg 70%
23:00 +9°C° 0 mm 1 mps 754 mmHg 71%

21 April, Wednesday

Time Temperature Precipitation Wind Pressure Humidity
00:00 +8°C° 0 mm 2 mps 754 mmHg 72%
01:00 +7°C° 0 mm 2 mps 753 mmHg 74%
02:00 +7°C° 0 mm 2 mps 753 mmHg 76%
03:00 +6°C° 0 mm 2 mps 753 mmHg 79%
04:00 +6°C° 0 mm 2 mps 753 mmHg 81%
05:00 +7°C° 0 mm 2 mps 753 mmHg 79%
06:00 +8°C° 0 mm 2 mps 753 mmHg 78%
07:00 +9°C° 0 mm 2 mps 753 mmHg 76%
08:00 +10°C° 0.2 mm 3 mps 753 mmHg 70%
09:00 +11°C° 0.2 mm 3 mps 753 mmHg 64%
10:00 +12°C° 0.2 mm 3 mps 753 mmHg 58%
11:00 +12°C° 0.2 mm 3 mps 752 mmHg 57%
12:00 +13°C° 0.2 mm 4 mps 752 mmHg 57%
13:00 +13°C° 0.2 mm 4 mps 752 mmHg 56%
14:00 +13°C° 0.4 mm 4 mps 752 mmHg 58%
15:00 +13°C° 0.4 mm 4 mps 751 mmHg 61%
16:00 +12°C° 0.4 mm 5 mps 751 mmHg 63%
17:00 +11°C° 0.3 mm 4 mps 751 mmHg 68%
18:00 +10°C° 0.3 mm 3 mps 751 mmHg 73%
19:00 +9°C° 0.3 mm 3 mps 751 mmHg 78%
20:00 +8°C° 0 mm 3 mps 751 mmHg 79%
21:00 +7°C° 0 mm 3 mps 750 mmHg 81%
22:00 +7°C° 0 mm 3 mps 750 mmHg 83%
23:00 +5°C° 0 mm 3 mps 750 mmHg 83%
Show more